This demonstration page uses our WeatherBlox Daily Observations layout. Learn more.

Left ArrowRight Arrow

40.92501, -98.34201

Hourly Observations for November 29, 2021

Temp ( °F °C ) Dew Point ( °F °C ) Humidity (%) Winds ( mph kmh ) Pressure ( in mb ) Visibility ( mi km ) Precip ( " mm )
12:53 am 00:53 Clear 40 4.4 28 -2.2 63 63 SW 7 11 29.99 1016 10 16 N/A
1:53 am 01:53 Clear 40 4.4 28 -2.2 63 63 SW 7 11 29.97 1015 10 16 N/A
2:53 am 02:53 Clear 38 3.3 28 -2.2 68 68 SW 7 11 29.96 1015 10 16 N/A
3:53 am 03:53 Clear 39 3.9 29 -1.7 67 67 WSW 7 11 29.94 1014 10 16 N/A
4:53 am 04:53 Clear 41 5 30 -1.1 65 65 W 10 17 29.94 1014 10 16 N/A
5:53 am 05:53 Clear 39 3.9 30 -1.1 70 70 W 12 19 29.95 1014 10 16 N/A
6:53 am 06:53 Clear 40 4.4 31 -0.6 70 70 W 8 13 29.96 1015 10 16 N/A
7:53 am 07:53 Sunny 42 5.6 31 -0.6 65 65 W 10 17 29.96 1015 10 16 N/A
8:53 am 08:53 Sunny 47 8.3 33 0.6 59 59 W 13 20 29.97 1015 10 16 N/A
9:53 am 09:53 Sunny 54 12.2 34 1.1 47 47 W 14 22 29.97 1015 10 16 N/A
10:53 am 10:53 Sunny 58 14.4 35 1.7 42 42 W 14 22 29.97 1015 10 16 N/A
11:53 am 11:53 Sunny 64 17.8 35 1.7 34 34 WNW 14 22 29.96 1015 10 16 N/A
12:53 pm 12:53 Sunny 69 20.6 35 1.7 29 29 WNW 14 22 29.93 1014 10 16 N/A
1:53 pm 13:53 Sunny 72 22.2 33 0.6 24 24 NNW 15 24 29.92 1013 10 16 N/A
2:53 pm 14:53 Sunny 70 21.1 33 0.6 26 26 NNW 16 26 29.93 1014 10 16 N/A
3:53 pm 15:53 Sunny 70 21.1 34 1.1 27 27 NNW 10 17 29.95 1014 10 16 N/A
4:53 pm 16:53 Sunny 62 16.7 32 undefined 32 32 NNW 9 15 29.97 1015 10 16 N/A
5:53 pm 17:53 Clear 51 10.6 30 -1.1 44 44 W 7 11 30.01 1016 10 16 N/A
6:53 pm 18:53 Clear 48 8.9 30 -1.1 50 50 W 7 11 30.02 1017 10 16 N/A
7:53 pm 19:53 Clear 50 10 31 -0.6 48 48 W 7 11 30.04 1017 10 16 N/A
8:53 pm 20:53 Clear 45 7.2 29 -1.7 54 54 NW 8 13 30.05 1018 10 16 N/A
9:53 pm 21:53 Clear 43 6.1 30 -1.1 60 60 NW 9 15 30.06 1018 10 16 N/A
10:53 pm 22:53 Clear 41 5 29 -1.7 62 62 N N/A 30.06 1018 10 16 N/A
11:53 pm 23:53 Clear 40 4.4 29 -1.7 65 65 NW 3 6 30.09 1019 10 16 N/A

Powered by AerisWeather